Weather in Konstantinovka

Russia / Kirov Oblast     56°41′10″N   50°52′13″E
temp.,
°C
wind,
m/s
gust,
m/s
humid.,
%
clouds,
%
prec.,
mm/h
press.,
hPa
HPBL,
m
19 april, mon
mon1900:00+1ene51362100 0.0 1029623
03:00−1ene51362100 0.0 1031494
06:00−1ene513605 0.0 1031541
09:00+3e69395 0.0 10321213
12:00+5e69290 0.0 10321539
15:00+6e68280 0.0 10311639
18:00+4ene410400 0.0 1032493
21:000ene412560 0.0 1033301
20 april, tue
tue2000:00−1e311560 0.0 1034275
03:00−1e310570 0.0 1034250
06:000e49510 0.0 1034321
09:00+6ese46320 0.0 10341148
12:00+8ese46270 0.0 10331450
15:00+9ese45280 0.0 10321402
18:00+6ese36460 0.0 1030139
21:00+2ese395824 0.0 1031153
21 april, wed
wed2100:00+1ese3115938 0.0 1030209
03:00+1ese4135799 0.0 1029280
06:00+2se51451100 0.0 1028560
09:00+7se71439100 0.0 1026995
12:00+8se71437100 0.0 10251079
15:00+7sse61544100 0.1 10241230
18:00+3sse71581100 0.8 1025909
21:00+3sse71596100 2.1 1025802
22 april, thu
thu2200:00+2sse61397100 2.8 1024708
03:00+2sse51297100 3.7 1024599
06:00+2sse51297100 0.8 1024620
09:00+3sse51197100 3.1 1024652
12:00+4sse51095100 0.6 1025582
15:00+5sse51093100 0.6 1025554
18:00+6sse51194100 0.1 1025492
21:00+5sse5119690 0.1 1026411
23 april, fri
fri2300:00+5sse4119682 0.1 1026445
03:00+4sse4996100 0.1 1026335
06:00+4sse4895100 0.0 1026318
09:00+8s458174 0.0 1026565
12:00+10sse447377 0.0 1026814
15:00+11sse446789 0.0 10251050
18:00+8sse4682100 0.0 1025392
21:00+6se25862 0.0 1025278